Hourly Data Report for February 26, 2018

MIRAMICHI RCS
NEW BRUNSWICK

47°00'34.000" N
65°27'54.000" W
33.00 m
8100989
71744
ACQ

Download Data

Hourly Data (February 2018)
Hourly Data Report for February 26, 2018
TIME
LST
Temp Definition
°C
Dew Point Definition
°C
Rel Hum Definition
%
Precip. Amount Definition
mm

Wind Dir Definition
10's deg

Wind Spd Definition
km/h
Visibility Definition
km
Stn Press Definition
kPa
Hmdx Definition


Wind Chill Definition


Weather Definition


00:00 -5.3 -7.0 88 0.0 14 15   101.70   -11 LegendNANA
01:00 -4.9 -6.7 87 0.0 15 15   101.58   -10 LegendNANA
02:00 -4.5 -6.5 86 0.0 15 10   101.48   -9 LegendNANA
03:00 -4.6 -5.8 91 0.2 15 6   101.43   -7 LegendNANA
04:00 -4.6 -5.7 92 0.2 0 1   101.34   -5 LegendNANA
05:00 -4.5 -5.5 93 0.2 10 1   101.25   -5 LegendNANA
06:00 -4.5 -5.5 93 0.3 0 1   101.24   -5 LegendNANA
07:00 -4.5 -5.6 92 0.2 3 1   101.15   -5 LegendNANA
08:00 -4.2 -5.1 93 0.0 9 5   101.12   -6 LegendNANA
09:00 -3.0 -4.5 90 0.0 18 9   101.06   -7 LegendNANA
10:00 -1.8 -3.3 90 0.0 20 10   100.99   -5 LegendNANA
11:00 -0.1 -1.9 88 0.0 19 13   100.83   -4 LegendNANA
12:00 1.0 -1.1 86 0.0 23 17   100.80     LegendNANA
13:00 1.5 -0.9 85 0.0 23 14   100.69     LegendNANA
14:00 3.2 -0.6 77 0.0 23 11   100.59     LegendNANA
15:00 3.8 -0.9 72 0.0 24 16   100.53     LegendNANA
16:00 3.7 -0.2 75 0.0 24 12   100.52     LegendNANA
17:00 3.4 0.2 79 0.0 22 11   100.51     LegendNANA
18:00 3.8 -1.0 71 0.0 25 12   100.54     LegendNANA
19:00 3.7 -4.2 56 0.0 29 23   100.62     LegendNANA
20:00 2.6 -3.6 64 0.0 29 10   100.72     LegendNANA
21:00 1.6 -3.7 68 0.0 29 11   100.76     LegendNANA
22:00 0.1 -3.9 75 0.0 26 9   100.81     LegendNANA
23:00 -0.2 -4.0 75 0.0 27 12   100.87   -4 LegendNANA

Notes on Data Quality.

Legend

  • E = Estimated
  • M = Missing
  • NA = Not Available*
  • [empty] = Indicates an unobserved value
Date modified: